Current weather by "City, St" or "zip code"  
 
Advertise Here

Current Conditions: Arlington Municipal Airport, WA

Fair


50.0 F

Last Updated on May 30 2020, 1:56 am PDT
Humidity: 83%
Wind Speed: SE 4.6 mph
Barometer 29.85 in
Dewpoint: 45.0 F
Visibility: 10.00 mi
Precip: --
Heat Index: NA
Wind Chill: 48 F
Current conditions at:

Arlington Municipal Airport, WA (KAWO)

Lat: 48.1585 Lon: 122.15909

Local Radar Image active severe weather and emergency alerts image image weather storm and storm spotter reports image weather observation monitoring service image
Local
Radar
Active
Alerts
Storm Reports Obs
Monitoring

Sign-up For Email & Text Message Weather Alert Notification Services


Advertise Here

Observation History for Arlington Municipal Airport, WA


Time Wind
(mph)
Vis
(mi)
Weather Precip (in) Temperature (F) Relative
Humidity
Wind
Chill
(F)
Heat
Index
(F)
Pressure
Air Dwpt altimeter
(in)
sea level
(mb)
Rmks
1:56 am PDT SE 4.6 10.00 Fair -- 50.0 45.0 83% 48 NA 29.85 1011.0
12:56 am PDT N 4.6 10.00 Fair -- 52.0 44.1 75% 51 NA 29.86 1011.6
11:56 pm PDT NW 3.5 10.00 Fair -- 53.0 45.0 74% NA NA 29.89 1012.4
10:56 pm PDT NW 9.2 10.00 Fair -- 54.0 44.1 69% 51 NA 29.87 1011.9
9:56 pm PDT N 6.9 10.00 Fair -- 55.0 43.0 64% 53 NA 29.87 1011.9
8:56 pm PDT NW 8.1 10.00 Fair -- 57.0 43.0 60% 55 NA 29.88 1012.0
7:56 pm PDT NW 4.6 10.00 Fair -- 60.0 45.0 58% 60 NA 29.88 1012.2
6:56 pm PDT NW 4.6 10.00 Fair -- 61.0 45.0 56% 61 NA 29.90 1012.7
5:56 pm PDT NW 8.1 10.00 Fair -- 63.0 45.0 52% 63 NA 29.90 1012.9
4:56 pm PDT NW 13.8 10.00 Partly Cloudy -- 67.0 46.9 49% NA NA 29.91 1013.1
3:56 pm PDT NW 11.5 G 19.6 10.00 Fair -- 68.0 53.1 59% NA NA 29.91 1013.3
2:56 pm PDT NW 11.5 10.00 A Few Clouds -- 68.0 55.0 63% NA NA 29.92 1013.6
1:56 pm PDT NW 9.2 10.00 Fair -- 67.0 54.0 63% NA NA 29.93 1013.9
12:56 pm PDT NW 12.7 10.00 Fair -- 66.0 54.0 65% NA NA 29.94 1014.1
11:56 am PDT NW 9.2 10.00 Fair -- 65.0 53.1 66% NA NA 29.95 1014.6
10:56 am PDT NW 11.5 10.00 Fair -- 65.0 53.1 66% NA NA 29.96 1014.8
9:56 am PDT N 6.9 10.00 Fair -- 63.0 53.1 70% 63 NA 29.98 1015.4
8:56 am PDT NW 4.6 10.00 Fair -- 61.0 52.0 72% 61 NA 29.98 1015.7
7:56 am PDT N 4.6 10.00 Fair -- 58.0 52.0 81% 58 NA 30.00 1016.1
6:56 am PDT NW 5.8 10.00 Fair -- 56.0 51.1 84% 55 NA 30.00 1016.2
5:56 am PDT N 0.0 10.00 Fair -- 51.0 46.0 83% NA NA 29.98 1015.6
4:56 am PDT N 0.0 10.00 Fair -- 53.0 46.0 77% NA NA 29.98 1015.5
3:56 am PDT N 0.0 10.00 Fair -- 53.0 46.0 77% NA NA 29.96 1014.8
2:56 am PDT N 0.0 10.00 Fair -- 56.0 46.9 72% NA NA 29.96 1014.8

Regional Weather Observation


Burlington/Mount Vernon, Skagit Regional Airport, WA (KBVS)

Fair
52.0 F

Whidbey Island Naval Air Station - Ault Field, WA (KNUW)

Mostly Cloudy
52.0 F

Bellingham, Bellingham International Airport, WA (KBLI)

Fair
55.0 F

Eastsound, Orcas Island Airport, WA (KORS)

NULL
63.0 F

Friday Harbor Airport, WA (KFHR)

Fair
50.0 F

Everett Snohomish County, WA (KPAE)

Fair
52.0 F